owner,sensor,date,latitude,longitude,vertical_datum,direction_of_sea_water_velocity,sea_water_speed,upward_sea_water_velocity,qcFlag 
TABS,ioos:station:wmo:42048:1,2009-12-01T00:00:00Z,27.9396,-96.8429,2.0,218.4920619,36.87278265,-99999.0,'11111222,11111222,99999999' 
TABS,ioos:station:wmo:42048:1,2009-12-01T00:30:00Z,27.9396,-96.8429,2.0,217.2686299,35.32285662,-99999.0,'11111222,11111222,99999999' 
TABS,ioos:station:wmo:42048:1,2009-12-01T01:00:00Z,27.9396,-96.8429,2.0,218.9955021,39.68131172,-99999.0,'11111222,11111222,99999999' 
TABS,ioos:station:wmo:42048:1,2009-12-01T01:30:00Z,27.9396,-96.8429,2.0,223.5013471,35.15522721,-99999.0,'11111222,11111222,99999999' 
TABS,ioos:station:wmo:42048:1,2009-12-01T02:00:00Z,27.9396,-96.8429,2.0,225.0985977,32.76737707,-99999.0,'11111222,11111222,99999999' 
TABS,ioos:station:wmo:42048:1,2009-12-01T02:30:00Z,27.9396,-96.8429,2.0,224.3983208,29.64354905,-99999.0,'11111222,11111222,99999999' 
TABS,ioos:station:wmo:42048:1,2009-12-01T03:00:00Z,27.9396,-96.8429,2.0,209.7184269,27.15120623,-99999.0,'11111222,11111222,99999999' 
TABS,ioos:station:wmo:42048:1,2009-12-01T03:30:00Z,27.9396,-96.8429,2.0,216.4948825,30.88666055,-99999.0,'11111222,11111222,99999999' 
TABS,ioos:station:wmo:42048:1,2009-12-01T04:00:00Z,27.9396,-96.8429,2.0,218.8049923,35.05799909,-99999.0,'11111222,11111222,99999999' 
TABS,ioos:station:wmo:42048:1,2009-12-01T04:30:00Z,27.9396,-96.8429,2.0,221.007631,32.70525952,-99999.0,'11111222,11111222,99999999' 
TABS,ioos:station:wmo:42048:1,2009-12-01T05:00:00Z,27.9396,-96.8429,2.0,222.0247496,30.38289815,-99999.0,'11111222,11111222,99999999' 
TABS,ioos:station:wmo:42048:1,2009-12-01T05:30:00Z,27.9396,-96.8429,2.0,222.0166257,31.52310898,-99999.0,'11111222,11111222,99999999' 
TABS,ioos:station:wmo:42048:1,2009-12-01T06:00:00Z,27.9396,-96.8429,2.0,228.1697788,34.65176042,-99999.0,'11111222,11111222,99999999' 
TABS,ioos:station:wmo:42048:1,2009-12-01T06:30:00Z,27.9396,-96.8429,2.0,214.9503592,34.03909517,-99999.0,'11111222,11111222,99999999' 
TABS,ioos:station:wmo:42048:1,2009-12-01T07:00:00Z,27.9396,-96.8429,2.0,226.1115133,41.54327382,-99999.0,'11111222,11111222,99999999' 
TABS,ioos:station:wmo:42048:1,2009-12-01T07:30:00Z,27.9396,-96.8429,2.0,219.2823775,41.9491895,-99999.0,'11111222,11111222,99999999' 
TABS,ioos:station:wmo:42048:1,2009-12-01T08:00:00Z,27.9396,-96.8429,2.0,226.6713574,32.9652059,-99999.0,'11111222,11111222,99999999' 
TABS,ioos:station:wmo:42048:1,2009-12-01T08:30:00Z,27.9396,-96.8429,2.0,230.4394198,32.89425634,-99999.0,'11111222,11111222,99999999' 
TABS,ioos:station:wmo:42048:1,2009-12-01T09:00:00Z,27.9396,-96.8429,2.0,227.142181,37.82837295,-99999.0,'11111222,11111222,99999999' 
TABS,ioos:station:wmo:42048:1,2009-12-01T09:30:00Z,27.9396,-96.8429,2.0,217.3753341,36.02740346,-99999.0,'11111222,11111222,99999999' 
TABS,ioos:station:wmo:42048:1,2009-12-01T10:00:00Z,27.9396,-96.8429,2.0,229.291634,39.58879261,-99999.0,'11111222,11111222,99999999' 
TABS,ioos:station:wmo:42048:1,2009-12-01T10:30:00Z,27.9396,-96.8429,2.0,222.7090796,42.99108861,-99999.0,'11111222,11111222,99999999' 
TABS,ioos:station:wmo:42048:1,2009-12-01T11:00:00Z,27.9396,-96.8429,2.0,227.6247838,39.98642395,-99999.0,'11111222,11111222,99999999' 
TABS,ioos:station:wmo:42048:1,2009-12-01T11:30:00Z,27.9396,-96.8429,2.0,221.2775176,38.12276223,-99999.0,'11111222,11111222,99999999' 
TABS,ioos:station:wmo:42048:1,2009-12-01T12:00:00Z,27.9396,-96.8429,2.0,220.2449623,41.54406937,-99999.0,'11111222,11111222,99999999' 
TABS,ioos:station:wmo:42048:1,2009-12-01T12:30:00Z,27.9396,-96.8429,2.0,222.556269,41.96251303,-99999.0,'11111222,11111222,99999999' 
TABS,ioos:station:wmo:42048:1,2009-12-01T13:00:00Z,27.9396,-96.8429,2.0,219.2497997,48.20558992,-99999.0,'11111222,11111222,99999999' 
TABS,ioos:station:wmo:42048:1,2009-12-01T13:30:00Z,27.9396,-96.8429,2.0,221.3167513,50.96744942,-99999.0,'11111222,11111222,99999999' 
TABS,ioos:station:wmo:42048:1,2009-12-01T14:00:00Z,27.9396,-96.8429,2.0,223.9443576,48.3743093,-99999.0,'11111222,11111222,99999999' 
TABS,ioos:station:wmo:42048:1,2009-12-01T14:30:00Z,27.9396,-96.8429,2.0,235.5769387,38.174815,-99999.0,'11111222,11111222,99999999' 
TABS,ioos:station:wmo:42048:1,2009-12-01T15:00:00Z,27.9396,-96.8429,2.0,227.0931357,41.2306306,-99999.0,'11111222,11111222,99999999' 
TABS,ioos:station:wmo:42048:1,2009-12-01T15:30:00Z,27.9396,-96.8429,2.0,233.0474429,47.32604885,-99999.0,'11111222,11111222,99999999' 
TABS,ioos:station:wmo:42048:1,2009-12-01T16:00:00Z,27.9396,-96.8429,2.0,232.7700786,41.73482239,-99999.0,'11111222,11111222,99999999' 
TABS,ioos:station:wmo:42048:1,2009-12-01T16:30:00Z,27.9396,-96.8429,2.0,230.3033272,39.62620598,-99999.0,'11111222,11111222,99999999' 
TABS,ioos:station:wmo:42048:1,2009-12-01T17:00:00Z,27.9396,-96.8429,2.0,225.2010928,38.21935766,-99999.0,'11111222,11111222,99999999' 
TABS,ioos:station:wmo:42048:1,2009-12-01T17:30:00Z,27.9396,-96.8429,2.0,226.5944247,43.70198394,-99999.0,'11111222,11111222,99999999' 
TABS,ioos:station:wmo:42048:1,2009-12-01T18:00:00Z,27.9396,-96.8429,2.0,232.8870627,40.6043643,-99999.0,'11111222,11111222,99999999' 
TABS,ioos:station:wmo:42048:1,2009-12-01T18:30:00Z,27.9396,-96.8429,2.0,225.3036909,39.98038019,-99999.0,'11111222,11111222,99999999' 
TABS,ioos:station:wmo:42048:1,2009-12-01T19:00:00Z,27.9396,-96.8429,2.0,228.5456236,42.41568696,-99999.0,'11111222,11111222,99999999' 
TABS,ioos:station:wmo:42048:1,2009-12-01T19:30:00Z,27.9396,-96.8429,2.0,222.7667321,35.38928228,-99999.0,'11111222,11111222,99999999' 
TABS,ioos:station:wmo:42048:1,2009-12-01T20:00:00Z,27.9396,-96.8429,2.0,230.1887597,41.20226814,-99999.0,'11111222,11111222,99999999' 
TABS,ioos:station:wmo:42048:1,2009-12-01T20:30:00Z,27.9396,-96.8429,2.0,215.6175981,46.49910107,-99999.0,'11111222,11111222,99999999' 
TABS,ioos:station:wmo:42048:1,2009-12-01T21:00:00Z,27.9396,-96.8429,2.0,219.115241,46.14143583,-99999.0,'11111222,11111222,99999999' 
TABS,ioos:station:wmo:42048:1,2009-12-01T21:30:00Z,27.9396,-96.8429,2.0,218.3764723,48.37072772,-99999.0,'11111222,11111222,99999999' 
TABS,ioos:station:wmo:42048:1,2009-12-01T22:00:00Z,27.9396,-96.8429,2.0,219.6065498,47.62232355,-99999.0,'11111222,11111222,99999999' 
TABS,ioos:station:wmo:42048:1,2009-12-01T22:30:00Z,27.9396,-96.8429,2.0,217.3045558,47.94938164,-99999.0,'11111222,11111222,99999999' 
TABS,ioos:station:wmo:42048:1,2009-12-01T23:00:00Z,27.9396,-96.8429,2.0,216.3806223,42.41754472,-99999.0,'11111222,11111222,99999999' 
TABS,ioos:station:wmo:42048:1,2009-12-01T23:30:00Z,27.9396,-96.8429,2.0,222.7762908,41.92056536,-99999.0,'11111222,11111222,99999999' 
TABS,ioos:station:wmo:42048:1,2009-12-02T00:00:00Z,27.9396,-96.8429,2.0,216.9886056,44.29409554,-99999.0,'11111222,11111222,99999999' 
TABS,ioos:station:wmo:42048:1,2009-12-02T00:30:00Z,27.9396,-96.8429,2.0,224.5629751,47.31388908,-99999.0,'11111222,11111222,99999999' 
TABS,ioos:station:wmo:42048:1,2009-12-02T01:00:00Z,27.9396,-96.8429,2.0,224.4958039,41.00670799,-99999.0,'11111222,11111222,99999999' 
TABS,ioos:station:wmo:42048:1,2009-12-02T01:30:00Z,27.9396,-96.8429,2.0,215.6714215,43.23145267,-99999.0,'11111222,11111222,99999999' 
TABS,ioos:station:wmo:42048:1,2009-12-02T02:00:00Z,27.9396,-96.8429,2.0,221.6764435,40.74129355,-99999.0,'11111222,11111222,99999999' 
TABS,ioos:station:wmo:42048:1,2009-12-02T02:30:00Z,27.9396,-96.8429,2.0,214.6086383,42.02671769,-99999.0,'11111222,11111222,99999999' 
TABS,ioos:station:wmo:42048:1,2009-12-02T03:00:00Z,27.9396,-96.8429,2.0,227.145331,36.63967795,-99999.0,'11111222,11111222,99999999' 
TABS,ioos:station:wmo:42048:1,2009-12-02T03:30:00Z,27.9396,-96.8429,2.0,217.4617829,38.70206713,-99999.0,'11111222,11111222,99999999' 
TABS,ioos:station:wmo:42048:1,2009-12-02T04:00:00Z,27.9396,-96.8429,2.0,222.9858392,38.03047857,-99999.0,'11111222,11111222,99999999' 
TABS,ioos:station:wmo:42048:1,2009-12-02T04:30:00Z,27.9396,-96.8429,2.0,217.3707876,37.49743458,-99999.0,'11111222,11111222,99999999' 
TABS,ioos:station:wmo:42048:1,2009-12-02T05:00:00Z,27.9396,-96.8429,2.0,222.3524974,32.15109951,-99999.0,'11111222,11111222,99999999' 
TABS,ioos:station:wmo:42048:1,2009-12-02T05:30:00Z,27.9396,-96.8429,2.0,218.662138,34.01464538,-99999.0,'11111222,11111222,99999999' 
TABS,ioos:station:wmo:42048:1,2009-12-02T06:00:00Z,27.9396,-96.8429,2.0,221.789173,32.95339891,-99999.0,'11111222,11111222,99999999' 
TABS,ioos:station:wmo:42048:1,2009-12-02T06:30:00Z,27.9396,-96.8429,2.0,221.9722792,34.94448884,-99999.0,'11111222,11111222,99999999' 
TABS,ioos:station:wmo:42048:1,2009-12-02T07:00:00Z,27.9396,-96.8429,2.0,224.6991854,32.35765134,-99999.0,'11111222,11111222,99999999' 
TABS,ioos:station:wmo:42048:1,2009-12-02T07:30:00Z,27.9396,-96.8429,2.0,222.7355094,31.85881981,-99999.0,'11111222,11111222,99999999' 
TABS,ioos:station:wmo:42048:1,2009-12-02T08:00:00Z,27.9396,-96.8429,2.0,219.3275856,29.33298826,-99999.0,'11111222,11111222,99999999' 
TABS,ioos:station:wmo:42048:1,2009-12-02T08:30:00Z,27.9396,-96.8429,2.0,215.2165466,36.5372057,-99999.0,'11111222,11111222,99999999' 
TABS,ioos:station:wmo:42048:1,2009-12-02T09:00:00Z,27.9396,-96.8429,2.0,214.595633,35.78818241,-99999.0,'11111222,11111222,99999999' 
TABS,ioos:station:wmo:42048:1,2009-12-02T09:30:00Z,27.9396,-96.8429,2.0,215.0819888,37.44222216,-99999.0,'11111222,11111222,99999999' 
TABS,ioos:station:wmo:42048:1,2009-12-02T10:00:00Z,27.9396,-96.8429,2.0,208.8118105,38.78087802,-99999.0,'11111222,11111222,99999999' 
TABS,ioos:station:wmo:42048:1,2009-12-02T10:30:00Z,27.9396,-96.8429,2.0,212.1336714,30.23121566,-99999.0,'11111222,11111222,99999999' 
TABS,ioos:station:wmo:42048:1,2009-12-02T11:00:00Z,27.9396,-96.8429,2.0,215.7898067,28.76110742,-99999.0,'11111222,11111222,99999999' 
TABS,ioos:station:wmo:42048:1,2009-12-02T11:30:00Z,27.9396,-96.8429,2.0,220.1469638,31.34526599,-99999.0,'11111222,11111222,99999999' 
TABS,ioos:station:wmo:42048:1,2009-12-02T12:00:00Z,27.9396,-96.8429,2.0,213.2817381,27.26143246,-99999.0,'11111222,11111222,99999999' 
TABS,ioos:station:wmo:42048:1,2009-12-02T12:30:00Z,27.9396,-96.8429,2.0,219.9528667,29.82116866,-99999.0,'11111222,11111222,99999999' 
TABS,ioos:station:wmo:42048:1,2009-12-02T13:00:00Z,27.9396,-96.8429,2.0,219.8613376,27.47544722,-99999.0,'11111222,11111222,99999999' 
TABS,ioos:station:wmo:42048:1,2009-12-02T13:30:00Z,27.9396,-96.8429,2.0,215.7082625,31.1824053,-99999.0,'11111222,11111222,99999999' 
TABS,ioos:station:wmo:42048:1,2009-12-02T14:00:00Z,27.9396,-96.8429,2.0,214.8891424,29.28349194,-99999.0,'11111222,11111222,99999999' 
TABS,ioos:station:wmo:42048:1,2009-12-02T14:30:00Z,27.9396,-96.8429,2.0,211.9301412,27.54830848,-99999.0,'11111222,11111222,99999999' 
TABS,ioos:station:wmo:42048:1,2009-12-02T15:00:00Z,27.9396,-96.8429,2.0,207.0968509,22.63445603,-99999.0,'11111222,11111222,99999999' 
TABS,ioos:station:wmo:42048:1,2009-12-02T15:30:00Z,27.9396,-96.8429,2.0,211.0804968,19.31249595,-99999.0,'11111222,11111222,99999999' 
TABS,ioos:station:wmo:42048:1,2009-12-02T16:00:00Z,27.9396,-96.8429,2.0,218.0585666,23.22900127,-99999.0,'11111222,11111222,99999999' 
TABS,ioos:station:wmo:42048:1,2009-12-02T16:30:00Z,27.9396,-96.8429,2.0,206.4848684,22.44567219,-99999.0,'11111222,11111222,99999999' 
TABS,ioos:station:wmo:42048:1,2009-12-02T17:00:00Z,27.9396,-96.8429,2.0,202.6658856,21.90154561,-99999.0,'11111222,11111222,99999999' 
TABS,ioos:station:wmo:42048:1,2009-12-02T17:30:00Z,27.9396,-96.8429,2.0,196.3719497,16.78043206,-99999.0,'11111222,11111222,99999999' 
TABS,ioos:station:wmo:42048:1,2009-12-02T18:00:00Z,27.9396,-96.8429,2.0,198.4346953,16.79169438,-99999.0,'11111222,11111222,99999999' 
TABS,ioos:station:wmo:42048:1,2009-12-02T18:30:00Z,27.9396,-96.8429,2.0,203.3005721,13.98021817,-99999.0,'11111222,11111222,99999999' 
TABS,ioos:station:wmo:42048:1,2009-12-02T19:00:00Z,27.9396,-96.8429,2.0,175.604965,11.35338276,-99999.0,'11111222,11111222,99999999' 
TABS,ioos:station:wmo:42048:1,2009-12-02T19:30:00Z,27.9396,-96.8429,2.0,186.9048454,8.400934472,-99999.0,'11133222,11111222,99999999' 
TABS,ioos:station:wmo:42048:1,2009-12-02T20:00:00Z,27.9396,-96.8429,2.0,209.8025049,7.363945953,-99999.0,'11133222,11111222,99999999' 
TABS,ioos:station:wmo:42048:1,2009-12-02T20:30:00Z,27.9396,-96.8429,2.0,206.4380185,6.064231196,-99999.0,'11133222,11111222,99999999' 
TABS,ioos:station:wmo:42048:1,2009-12-02T21:00:00Z,27.9396,-96.8429,2.0,199.3042083,3.750893227,-99999.0,'11133222,11111222,99999999' 
TABS,ioos:station:wmo:42048:1,2009-12-02T21:30:00Z,27.9396,-96.8429,2.0,273.5767469,1.603121954,-99999.0,'11133222,11111222,99999999' 
TABS,ioos:station:wmo:42048:1,2009-12-02T22:00:00Z,27.9396,-96.8429,2.0,166.2490353,3.407667824,-99999.0,'11133222,11111222,99999999' 
TABS,ioos:station:wmo:42048:1,2009-12-02T22:30:00Z,27.9396,-96.8429,2.0,85.68824818,2.527152548,-99999.0,'11133222,11111222,99999999' 
TABS,ioos:station:wmo:42048:1,2009-12-02T23:00:00Z,27.9396,-96.8429,2.0,45.27556294,2.941598205,-99999.0,'11133222,11111222,99999999' 
TABS,ioos:station:wmo:42048:1,2009-12-02T23:30:00Z,27.9396,-96.8429,2.0,74.03614102,4.254056887,-99999.0,'11133222,11111222,99999999' 
TABS,ioos:station:wmo:42048:1,2009-12-03T00:00:00Z,27.9396,-96.8429,2.0,54.06122106,7.138942499,-99999.0,'11133222,11111222,99999999' 
TABS,ioos:station:wmo:42048:1,2009-12-03T00:30:00Z,27.9396,-96.8429,2.0,61.63410071,6.545968225,-99999.0,'11133222,11111222,99999999' 
TABS,ioos:station:wmo:42048:1,2009-12-03T01:00:00Z,27.9396,-96.8429,2.0,42.00480895,7.307325092,-99999.0,'11133222,11111222,99999999' 
TABS,ioos:station:wmo:42048:1,2009-12-03T01:30:00Z,27.9396,-96.8429,2.0,50.10363209,10.49263551,-99999.0,'11111222,11111222,99999999' 
TABS,ioos:station:wmo:42048:1,2009-12-03T02:00:00Z,27.9396,-96.8429,2.0,44.5843241,9.744188011,-99999.0,'11133222,11111222,99999999' 
TABS,ioos:station:wmo:42048:1,2009-12-03T02:30:00Z,27.9396,-96.8429,2.0,20.80610351,12.61247398,-99999.0,'11111222,11111222,99999999' 
TABS,ioos:station:wmo:42048:1,2009-12-03T03:00:00Z,27.9396,-96.8429,2.0,33.08088469,17.73476811,-99999.0,'11111222,11111222,99999999' 
TABS,ioos:station:wmo:42048:1,2009-12-03T03:30:00Z,27.9396,-96.8429,2.0,52.21231283,14.98192244,-99999.0,'11111222,11111222,99999999' 
TABS,ioos:station:wmo:42048:1,2009-12-03T04:00:00Z,27.9396,-96.8429,2.0,50.14964583,13.07769093,-99999.0,'11111222,11111222,99999999' 
TABS,ioos:station:wmo:42048:1,2009-12-03T04:30:00Z,27.9396,-96.8429,2.0,34.97255834,14.37588258,-99999.0,'11111222,11111222,99999999' 
TABS,ioos:station:wmo:42048:1,2009-12-03T05:00:00Z,27.9396,-96.8429,2.0,40.84231,15.99442403,-99999.0,'11111222,11111222,99999999' 
TABS,ioos:station:wmo:42048:1,2009-12-03T05:30:00Z,27.9396,-96.8429,2.0,51.49805413,14.7459825,-99999.0,'11111222,11111222,99999999' 
TABS,ioos:station:wmo:42048:1,2009-12-03T06:00:00Z,27.9396,-96.8429,2.0,43.46850102,17.1959094,-99999.0,'11111222,11111222,99999999' 
TABS,ioos:station:wmo:42048:1,2009-12-03T06:30:00Z,27.9396,-96.8429,2.0,39.98619287,17.47584047,-99999.0,'11111222,11111222,99999999' 
TABS,ioos:station:wmo:42048:1,2009-12-03T07:00:00Z,27.9396,-96.8429,2.0,41.71577378,20.8585546,-99999.0,'11111222,11111222,99999999' 
TABS,ioos:station:wmo:42048:1,2009-12-03T07:30:00Z,27.9396,-96.8429,2.0,57.60168042,19.3167958,-99999.0,'11111222,11111222,99999999' 
TABS,ioos:station:wmo:42048:1,2009-12-03T08:00:00Z,27.9396,-96.8429,2.0,55.73672648,18.29492826,-99999.0,'11111222,11111222,99999999' 
TABS,ioos:station:wmo:42048:1,2009-12-03T08:30:00Z,27.9396,-96.8429,2.0,47.65058947,18.80794779,-99999.0,'11111222,11111222,99999999' 
TABS,ioos:station:wmo:42048:1,2009-12-03T09:00:00Z,27.9396,-96.8429,2.0,53.62612442,21.02678768,-99999.0,'11111222,11111222,99999999' 
TABS,ioos:station:wmo:42048:1,2009-12-03T09:30:00Z,27.9396,-96.8429,2.0,49.42909942,20.51077765,-99999.0,'11111222,11111222,99999999' 
TABS,ioos:station:wmo:42048:1,2009-12-03T10:00:00Z,27.9396,-96.8429,2.0,54.1229801,19.62294575,-99999.0,'11111222,11111222,99999999' 
TABS,ioos:station:wmo:42048:1,2009-12-03T10:30:00Z,27.9396,-96.8429,2.0,63.56366861,17.9243661,-99999.0,'11111222,11111222,99999999' 
TABS,ioos:station:wmo:42048:1,2009-12-03T11:00:00Z,27.9396,-96.8429,2.0,54.21060577,21.4258092,-99999.0,'11111222,11111222,99999999' 
TABS,ioos:station:wmo:42048:1,2009-12-03T11:30:00Z,27.9396,-96.8429,2.0,50.19452199,20.77526414,-99999.0,'11111222,11111222,99999999' 
TABS,ioos:station:wmo:42048:1,2009-12-03T12:00:00Z,27.9396,-96.8429,2.0,49.44272183,19.80901058,-99999.0,'11111222,11111222,99999999' 
TABS,ioos:station:wmo:42048:1,2009-12-03T12:30:00Z,27.9396,-96.8429,2.0,50.81380881,19.54597145,-99999.0,'11111222,11111222,99999999' 
TABS,ioos:station:wmo:42048:1,2009-12-03T13:00:00Z,27.9396,-96.8429,2.0,53.1188586,20.2280004,-99999.0,'11111222,11111222,99999999' 
TABS,ioos:station:wmo:42048:1,2009-12-03T13:30:00Z,27.9396,-96.8429,2.0,48.6997859,18.84832088,-99999.0,'11111222,11111222,99999999' 
TABS,ioos:station:wmo:42048:1,2009-12-03T14:00:00Z,27.9396,-96.8429,2.0,47.70053106,19.36087033,-99999.0,'11111222,11111222,99999999' 
TABS,ioos:station:wmo:42048:1,2009-12-03T14:30:00Z,27.9396,-96.8429,2.0,42.11167415,20.20649895,-99999.0,'11111222,11111222,99999999' 
TABS,ioos:station:wmo:42048:1,2009-12-03T15:00:00Z,27.9396,-96.8429,2.0,50.33819366,19.91363854,-99999.0,'11111222,11111222,99999999' 
TABS,ioos:station:wmo:42048:1,2009-12-03T15:30:00Z,27.9396,-96.8429,2.0,49.2142739,19.53360438,-99999.0,'11111222,11111222,99999999' 
TABS,ioos:station:wmo:42048:1,2009-12-03T16:00:00Z,27.9396,-96.8429,2.0,52.65205439,18.21463423,-99999.0,'11111222,11111222,99999999' 
TABS,ioos:station:wmo:42048:1,2009-12-03T16:30:00Z,27.9396,-96.8429,2.0,37.48628319,18.22305408,-99999.0,'11111222,11111222,99999999' 
TABS,ioos:station:wmo:42048:1,2009-12-03T17:00:00Z,27.9396,-96.8429,2.0,39.20969519,19.69441799,-99999.0,'11111222,11111222,99999999' 
TABS,ioos:station:wmo:42048:1,2009-12-03T17:30:00Z,27.9396,-96.8429,2.0,43.90165076,19.18026069,-99999.0,'11111222,11111222,99999999' 
TABS,ioos:station:wmo:42048:1,2009-12-03T18:00:00Z,27.9396,-96.8429,2.0,31.77943588,16.3866348,-99999.0,'11111222,11111222,99999999' 
TABS,ioos:station:wmo:42048:1,2009-12-03T18:30:00Z,27.9396,-96.8429,2.0,37.99885404,14.21275835,-99999.0,'11111222,11111222,99999999' 
TABS,ioos:station:wmo:42048:1,2009-12-03T19:00:00Z,27.9396,-96.8429,2.0,41.48857544,14.4308593,-99999.0,'11111222,11111222,99999999' 
TABS,ioos:station:wmo:42048:1,2009-12-03T19:30:00Z,27.9396,-96.8429,2.0,33.51160435,14.2364497,-99999.0,'11111222,11111222,99999999' 
TABS,ioos:station:wmo:42048:1,2009-12-03T20:00:00Z,27.9396,-96.8429,2.0,46.73423808,15.65544314,-99999.0,'11111222,11111222,99999999' 
TABS,ioos:station:wmo:42048:1,2009-12-03T20:30:00Z,27.9396,-96.8429,2.0,39.5335362,15.36459892,-99999.0,'11111222,11111222,99999999' 
TABS,ioos:station:wmo:42048:1,2009-12-03T21:00:00Z,27.9396,-96.8429,2.0,38.93362164,14.38532933,-99999.0,'11111222,11111222,99999999' 
TABS,ioos:station:wmo:42048:1,2009-12-03T21:30:00Z,27.9396,-96.8429,2.0,40.89375306,15.30572769,-99999.0,'11111222,11111222,99999999' 
TABS,ioos:station:wmo:42048:1,2009-12-03T22:00:00Z,27.9396,-96.8429,2.0,45.42824055,16.0871284,-99999.0,'11111222,11111222,99999999' 
TABS,ioos:station:wmo:42048:1,2009-12-03T22:30:00Z,27.9396,-96.8429,2.0,42.79999858,12.52502295,-99999.0,'11111222,11111222,99999999' 
TABS,ioos:station:wmo:42048:1,2009-12-03T23:00:00Z,27.9396,-96.8429,2.0,42.55730366,9.788181649,-99999.0,'11133222,11111222,99999999' 
TABS,ioos:station:wmo:42048:1,2009-12-03T23:30:00Z,27.9396,-96.8429,2.0,38.51507194,9.265818906,-99999.0,'11133222,11111222,99999999' 
TABS,ioos:station:wmo:42048:1,2009-12-04T00:00:00Z,27.9396,-96.8429,2.0,47.87590177,10.57041626,-99999.0,'11111222,11111222,99999999' 
TABS,ioos:station:wmo:42048:1,2009-12-04T00:30:00Z,27.9396,-96.8429,2.0,64.48182485,10.770701,-99999.0,'11111222,11111222,99999999' 
TABS,ioos:station:wmo:42048:1,2009-12-04T01:00:00Z,27.9396,-96.8429,2.0,63.09141299,8.948904961,-99999.0,'11133222,11111222,99999999' 
TABS,ioos:station:wmo:42048:1,2009-12-04T02:30:00Z,27.9396,-96.8429,2.0,40.997342112559,8.0027557753564,-99999.0,'1111122,1111122,1199999999' 
TABS,ioos:station:wmo:42048:1,2009-12-04T03:00:00Z,27.9396,-96.8429,2.0,71.927677851041,2.997899264485,-99999.0,'1111122,1111122,1199999999' 
TABS,ioos:station:wmo:42048:1,2009-12-04T03:30:00Z,27.9396,-96.8429,2.0,83.027230713974,7.0017854865741,-99999.0,'1111122,1111122,1199999999' 
TABS,ioos:station:wmo:42048:1,2009-12-04T04:00:00Z,27.9396,-96.8429,2.0,20.064631480418,3.002215848336,-99999.0,'1111122,1111122,1199999999' 
TABS,ioos:station:wmo:42048:1,2009-12-04T04:30:00Z,27.9396,-96.8429,2.0,117.07775140293,1.99912480851,-99999.0,'1111122,1111122,1199999999' 
TABS,ioos:station:wmo:42048:1,2009-12-04T05:00:00Z,27.9396,-96.8429,2.0,121.99526385469,6.0017080902023,-99999.0,'1111122,1111122,1199999999' 
TABS,ioos:station:wmo:42048:1,2009-12-04T05:30:00Z,27.9396,-96.8429,2.0,161.92767785104,2.997899264485,-99999.0,'1111122,1111122,1199999999' 
TABS,ioos:station:wmo:42048:1,2009-12-04T06:00:00Z,27.9396,-96.8429,2.0,20.064631480418,3.002215848336,-99999.0,'1111122,1111122,1199999999' 
TABS,ioos:station:wmo:42048:1,2009-12-04T06:30:00Z,27.9396,-96.8429,2.0,187.98600764503,8.9972551369848,-99999.0,'1111122,1111122,1199999999' 
TABS,ioos:station:wmo:42048:1,2009-12-04T07:00:00Z,27.9396,-96.8429,2.0,186.00082707772,11.000277269233,-99999.0,'1111122,1111122,1199999999' 
TABS,ioos:station:wmo:42048:1,2009-12-04T08:00:00Z,27.9396,-96.8429,2.0,231.1950188,17.29786114,-99999.0,'11111222,11111222,99999999' 
TABS,ioos:station:wmo:42048:1,2009-12-04T08:30:00Z,27.9396,-96.8429,2.0,211.7794007,17.22191917,-99999.0,'11111222,11111222,99999999' 
TABS,ioos:station:wmo:42048:1,2009-12-04T09:00:00Z,27.9396,-96.8429,2.0,220.2887779,21.69662186,-99999.0,'11111222,11111222,99999999' 
TABS,ioos:station:wmo:42048:1,2009-12-04T09:30:00Z,27.9396,-96.8429,2.0,210.6684088,24.31024681,-99999.0,'11111222,11111222,99999999' 
TABS,ioos:station:wmo:42048:1,2009-12-04T10:00:00Z,27.9396,-96.8429,2.0,223.9284394,26.85353794,-99999.0,'11111222,11111222,99999999' 
TABS,ioos:station:wmo:42048:1,2009-12-04T10:30:00Z,27.9396,-96.8429,2.0,229.2484472,29.01454808,-99999.0,'11111222,11111222,99999999' 
TABS,ioos:station:wmo:42048:1,2009-12-04T11:00:00Z,27.9396,-96.8429,2.0,226.0658406,30.02188035,-99999.0,'11111222,11111222,99999999' 
TABS,ioos:station:wmo:42048:1,2009-12-04T11:30:00Z,27.9396,-96.8429,2.0,212.7439783,34.27682161,-99999.0,'11111222,11111222,99999999' 
TABS,ioos:station:wmo:42048:1,2009-12-04T12:00:00Z,27.9396,-96.8429,2.0,217.8078592,38.3511421,-99999.0,'11111222,11111222,99999999' 
TABS,ioos:station:wmo:42048:1,2009-12-04T12:30:00Z,27.9396,-96.8429,2.0,218.1726198,38.96207515,-99999.0,'11111222,11111222,99999999' 
TABS,ioos:station:wmo:42048:1,2009-12-04T13:00:00Z,27.9396,-96.8429,2.0,218.7460566,42.38873081,-99999.0,'11111222,11111222,99999999' 
TABS,ioos:station:wmo:42048:1,2009-12-04T13:30:00Z,27.9396,-96.8429,2.0,221.8904289,44.58507598,-99999.0,'11111222,11111222,99999999' 
TABS,ioos:station:wmo:42048:1,2009-12-04T14:00:00Z,27.9396,-96.8429,2.0,227.7345438,45.05158821,-99999.0,'11111222,11111222,99999999' 
TABS,ioos:station:wmo:42048:1,2009-12-04T14:30:00Z,27.9396,-96.8429,2.0,220.8052752,45.63161185,-99999.0,'11111222,11111222,99999999' 
TABS,ioos:station:wmo:42048:1,2009-12-04T15:00:00Z,27.9396,-96.8429,2.0,220.7882423,46.79540362,-99999.0,'11111222,11111222,99999999' 
TABS,ioos:station:wmo:42048:1,2009-12-04T15:30:00Z,27.9396,-96.8429,2.0,223.9503058,47.4901853,-99999.0,'11111222,11111222,99999999' 
TABS,ioos:station:wmo:42048:1,2009-12-04T16:00:00Z,27.9396,-96.8429,2.0,223.8779113,52.01060084,-99999.0,'11111222,11111222,99999999' 
TABS,ioos:station:wmo:42048:1,2009-12-04T16:30:00Z,27.9396,-96.8429,2.0,223.020425,51.59300728,-99999.0,'11111222,11111222,99999999' 
TABS,ioos:station:wmo:42048:1,2009-12-04T17:00:00Z,27.9396,-96.8429,2.0,228.3922201,54.72697689,-99999.0,'11111222,11111222,99999999' 